TimeCDT,TemperatureF,Dew PointF,Humidity,Sea Level PressureIn,VisibilityMPH,Wind Direction,Wind SpeedMPH,Gust SpeedMPH,PrecipitationIn,Events,Conditions,WindDirDegrees,DateUTC
12:18 AM,73.0,68.0,84,29.65,10.0,South,5.8,-,N/A,,Clear,180,2013-09-19 05:18:00
12:38 AM,72.9,68.0,85,29.64,10.0,South,4.6,-,N/A,,Clear,180,2013-09-19 05:38:00
12:58 AM,73.4,68.0,83,29.65,10.0,South,5.8,-,N/A,,Clear,190,2013-09-19 05:58:00
1:18 AM,73.4,67.6,82,29.65,10.0,SSW,3.5,-,N/A,,Clear,200,2013-09-19 06:18:00
1:37 AM,73.0,67.6,83,29.68,10.0,Calm,Calm,-,N/A,,Clear,0,2013-09-19 06:37:00
1:57 AM,72.5,67.5,84,29.68,10.0,Calm,Calm,-,N/A,,Clear,0,2013-09-19 06:57:00
2:18 AM,71.4,67.5,87,29.71,10.0,NNW,8.1,-,N/A,,Clear,330,2013-09-19 07:18:00
2:38 AM,71.4,67.3,87,29.69,10.0,Calm,Calm,-,N/A,,Clear,0,2013-09-19 07:38:00
2:58 AM,69.3,66.6,91,29.69,10.0,Calm,Calm,-,N/A,,Clear,0,2013-09-19 07:58:00
3:18 AM,68.7,66.2,92,29.69,10.0,Calm,Calm,-,N/A,,Clear,0,2013-09-19 08:18:00
3:38 AM,68.5,66.9,95,29.68,10.0,Calm,Calm,-,N/A,,Clear,0,2013-09-19 08:38:00
3:58 AM,69.6,67.3,92,29.66,10.0,Calm,Calm,-,N/A,,Clear,0,2013-09-19 08:58:00
4:18 AM,69.4,66.6,91,29.66,10.0,Calm,Calm,-,N/A,,Scattered Clouds,0,2013-09-19 09:18:00
4:37 AM,70.3,66.7,88,29.66,10.0,Calm,Calm,-,N/A,,Scattered Clouds,0,2013-09-19 09:37:00
4:58 AM,70.2,66.6,88,29.65,10.0,Calm,Calm,-,N/A,,Clear,0,2013-09-19 09:58:00
5:17 AM,70.3,66.4,87,29.65,10.0,Calm,Calm,-,N/A,,Clear,0,2013-09-19 10:17:00
5:37 AM,70.3,66.2,87,29.64,10.0,Calm,Calm,-,N/A,,Clear,0,2013-09-19 10:37:00
5:58 AM,70.7,66.2,86,29.65,10.0,Calm,Calm,-,N/A,Thunderstorm,Clear,0,2013-09-19 10:58:00
6:18 AM,70.2,66.2,87,29.66,10.0,Calm,Calm,-,N/A,,Mostly Cloudy,0,2013-09-19 11:18:00
6:38 AM,69.8,66.0,88,29.66,10.0,Calm,Calm,-,N/A,,Scattered Clouds,0,2013-09-19 11:38:00
6:58 AM,68.4,65.8,92,29.65,10.0,Calm,Calm,-,N/A,Thunderstorm,Clear,0,2013-09-19 11:58:00
7:18 AM,67.5,65.7,94,29.64,7.0,Calm,Calm,-,N/A,,Clear,0,2013-09-19 12:18:00
7:38 AM,67.1,65.7,95,29.65,5.0,Calm,Calm,-,N/A,,Clear,0,2013-09-19 12:38:00
7:58 AM,68.4,66.6,94,29.70,7.0,Calm,Calm,-,N/A,Thunderstorm,Thunderstorm,0,2013-09-19 12:58:00
8:18 AM,68.9,66.6,92,29.71,2.0,West,6.9,18.4,0.23,Rain-Thunderstorm,Heavy Thunderstorms and Rain,280,2013-09-19 13:18:00
8:37 AM,64.8,62.6,93,29.68,3.0,NW,10.4,19.6,0.40,Rain-Thunderstorm,Heavy Thunderstorms and Rain,310,2013-09-19 13:37:00
8:58 AM,65.1,61.9,89,29.68,10.0,NW,11.5,20.7,0.41,Rain-Thunderstorm,Light Thunderstorms and Rain,320,2013-09-19 13:58:00
9:18 AM,65.3,62.2,90,29.66,10.0,NNW,8.1,21.9,N/A,Rain-Thunderstorm,Light Thunderstorms and Rain,340,2013-09-19 14:18:00
9:38 AM,66.2,63.1,90,29.69,10.0,Calm,Calm,-,N/A,Thunderstorm,Scattered Clouds,0,2013-09-19 14:38:00
9:58 AM,66.6,63.3,89,29.72,10.0,Calm,Calm,-,N/A,Thunderstorm,Mostly Cloudy,0,2013-09-19 14:58:00
10:18 AM,66.0,63.3,91,29.74,10.0,Calm,Calm,-,N/A,,Clear,0,2013-09-19 15:18:00
10:38 AM,65.8,63.7,93,29.77,10.0,Calm,Calm,-,N/A,,Clear,0,2013-09-19 15:38:00
10:58 AM,66.2,63.7,92,29.78,10.0,Calm,Calm,-,N/A,,Scattered Clouds,0,2013-09-19 15:58:00
11:18 AM,67.1,64.2,90,29.80,10.0,Calm,Calm,-,N/A,Rain,Light Rain,0,2013-09-19 16:18:00
11:38 AM,67.5,64.4,90,29.79,10.0,WNW,4.6,-,N/A,,Mostly Cloudy,290,2013-09-19 16:38:00
11:57 AM,68.4,64.8,88,29.80,10.0,Calm,Calm,-,N/A,,Overcast,0,2013-09-19 16:57:00
12:18 PM,69.6,64.0,82,29.80,10.0,NW,13.8,-,N/A,,Mostly Cloudy,320,2013-09-19 17:18:00
12:38 PM,69.8,63.5,80,29.81,10.0,NNW,13.8,-,N/A,,Mostly Cloudy,330,2013-09-19 17:38:00
12:58 PM,71.8,64.0,77,29.82,10.0,NW,13.8,17.3,N/A,,Mostly Cloudy,320,2013-09-19 17:58:00
1:17 PM,70.7,62.8,76,29.82,10.0,NW,8.1,-,N/A,,Overcast,310,2013-09-19 18:17:00
1:38 PM,71.4,61.9,72,29.82,10.0,NW,15.0,19.6,N/A,,Mostly Cloudy,320,2013-09-19 18:38:00
1:58 PM,72.5,61.5,68,29.82,10.0,NNW,12.7,18.4,N/A,,Scattered Clouds,330,2013-09-19 18:58:00
2:18 PM,72.7,61.5,68,29.83,10.0,NNW,10.4,16.1,N/A,,Scattered Clouds,330,2013-09-19 19:18:00
2:37 PM,72.7,61.0,67,29.82,10.0,NNW,10.4,-,N/A,,Scattered Clouds,340,2013-09-19 19:37:00
2:58 PM,74.5,59.9,60,29.82,10.0,NNW,9.2,-,N/A,,Clear,340,2013-09-19 19:58:00
3:18 PM,73.8,57.6,57,29.82,10.0,NNW,10.4,-,N/A,,Clear,340,2013-09-19 20:18:00
3:38 PM,75.6,57.0,52,29.81,10.0,North,9.2,16.1,N/A,,Clear,350,2013-09-19 20:38:00
3:57 PM,76.3,57.0,51,29.80,10.0,NNW,11.5,18.4,N/A,,Clear,330,2013-09-19 20:57:00
4:18 PM,76.8,56.3,49,29.82,10.0,NW,11.5,17.3,N/A,,Clear,320,2013-09-19 21:18:00
4:38 PM,77.2,56.5,49,29.82,10.0,NW,12.7,19.6,N/A,,Clear,320,2013-09-19 21:38:00
4:58 PM,77.7,53.2,43,29.82,10.0,NW,16.1,20.7,N/A,,Clear,310,2013-09-19 21:58:00
5:17 PM,77.2,50.9,40,29.83,10.0,NW,15.0,21.9,N/A,,Clear,310,2013-09-19 22:17:00
5:38 PM,75.2,50.0,41,29.83,10.0,WNW,15.0,23.0,N/A,,Clear,300,2013-09-19 22:38:00
5:58 PM,73.8,48.7,41,29.84,10.0,WNW,15.0,21.9,N/A,,Clear,300,2013-09-19 22:58:00
6:18 PM,72.7,48.7,43,29.85,10.0,WNW,10.4,17.3,N/A,,Clear,300,2013-09-19 23:18:00
6:38 PM,71.2,48.9,45,29.86,10.0,West,9.2,17.3,N/A,,Clear,280,2013-09-19 23:38:00
6:58 PM,69.3,49.8,50,29.86,10.0,WNW,3.5,-,N/A,,Clear,290,2013-09-19 23:58:00
7:04 PM,68.5,50.0,52,29.87,10.0,WNW,6.9,-,N/A,,Clear,290,2013-09-20 00:04:00
7:38 PM,66.6,49.5,54,29.86,10.0,WNW,10.4,17.3,N/A,,Clear,290,2013-09-20 00:38:00
7:58 PM,65.5,49.6,57,29.86,10.0,Calm,Calm,-,N/A,,Clear,0,2013-09-20 00:58:00
8:18 PM,64.8,50.0,59,29.86,10.0,Calm,Calm,-,N/A,,Clear,0,2013-09-20 01:18:00
8:37 PM,64.8,50.2,59,29.86,10.0,WNW,8.1,-,N/A,,Scattered Clouds,290,2013-09-20 01:37:00
8:58 PM,64.4,50.9,62,29.87,10.0,WNW,10.4,16.1,N/A,,Mostly Cloudy,290,2013-09-20 01:58:00
9:18 PM,62.6,51.8,68,29.88,10.0,NW,13.8,-,N/A,,Scattered Clouds,310,2013-09-20 02:18:00
9:38 PM,61.7,51.8,70,29.89,10.0,WNW,8.1,-,N/A,,Scattered Clouds,300,2013-09-20 02:38:00
9:57 PM,61.0,51.1,70,29.90,10.0,NW,10.4,-,N/A,,Mostly Cloudy,310,2013-09-20 02:57:00
10:18 PM,60.1,50.9,72,29.90,10.0,NW,6.9,-,N/A,,Mostly Cloudy,310,2013-09-20 03:18:00
10:38 PM,59.2,50.9,74,29.92,10.0,Calm,Calm,-,N/A,,Mostly Cloudy,0,2013-09-20 03:38:00
10:58 PM,59.0,50.9,74,29.93,10.0,WNW,8.1,-,N/A,,Scattered Clouds,300,2013-09-20 03:58:00
11:18 PM,58.3,50.9,76,29.94,10.0,Calm,Calm,-,N/A,,Mostly Cloudy,0,2013-09-20 04:18:00
11:38 PM,57.2,50.7,79,29.94,10.0,WNW,8.1,-,N/A,,Scattered Clouds,290,2013-09-20 04:38:00
11:57 PM,56.3,50.0,79,29.94,10.0,WNW,9.2,-,N/A,,Clear,300,2013-09-20 04:57:00